�������l�o���
Date,Time,MP-1(��Sv/h),MP-2(��Sv/h),MP-3(��Sv/h),MP-4(��Sv/h),MP-5(��Sv/h),MP-6(��Sv/h),MP-7(��Sv/h),MP-8(��Sv/h),����,����(m/s),���J
2019/04/10,00:00,0.783,1.158,0.797,1.484,1.075,0.443,0.785,0.743,�k��,3.8,��
2019/04/10,00:10,0.785,1.160,0.797,1.483,1.074,0.441,0.786,0.744,�k��,4.9,��
2019/04/10,00:20,0.783,1.157,0.797,1.488,1.076,0.441,0.785,0.744,�k��,5.2,��
2019/04/10,00:30,0.784,1.157,0.797,1.483,1.076,0.441,0.784,0.741,�k��,5.1,��
2019/04/10,00:40,0.783,1.156,0.796,1.481,1.075,0.439,0.784,0.742,�k��,5.2,��
2019/04/10,00:50,0.785,1.158,0.797,1.485,1.074,0.442,0.785,0.744,�k��,5.8,��
2019/04/10,01:00,0.783,1.155,0.796,1.483,1.075,0.440,0.784,0.743,�k��,6.8,��
2019/04/10,01:10,0.784,1.159,0.797,1.486,1.074,0.440,0.785,0.742,�k��,6.7,��
2019/04/10,01:20,0.783,1.157,0.795,1.484,1.074,0.441,0.784,0.742,�k��,6.0,��
2019/04/10,01:30,0.783,1.157,0.796,1.482,1.074,0.440,0.785,0.742,�k�k��,4.7,��
2019/04/10,01:40,0.786,1.158,0.798,1.483,1.074,0.441,0.786,0.743,�k�k��,6.0,��
2019/04/10,01:50,0.785,1.157,0.798,1.483,1.075,0.443,0.784,0.744,�k��,5.0,��
2019/04/10,02:00,0.783,1.159,0.795,1.482,1.075,0.442,0.785,0.742,�k�k��,4.2,��
2019/04/10,02:10,0.784,1.158,0.796,1.482,1.074,0.441,0.785,0.744,�k�k��,4.4,��
2019/04/10,02:20,0.785,1.158,0.796,1.483,1.074,0.442,0.785,0.742,�k�k��,4.0,��
2019/04/10,02:30,0.783,1.156,0.796,1.482,1.077,0.439,0.785,0.741,�k,4.3,��
2019/04/10,02:40,0.785,1.155,0.796,1.482,1.074,0.442,0.785,0.741,�k�k��,5.0,��
2019/04/10,02:50,0.782,1.158,0.796,1.483,1.074,0.440,0.787,0.743,�k,5.0,��
2019/04/10,03:00,0.783,1.157,0.797,1.483,1.075,0.441,0.785,0.742,�k,4.9,��
2019/04/10,03:10,0.783,1.158,0.797,1.481,1.074,0.440,0.785,0.743,�k,4.9,��
2019/04/10,03:20,0.784,1.157,0.796,1.482,1.075,0.440,0.785,0.744,�k,4.8,��
2019/04/10,03:30,0.784,1.158,0.796,1.480,1.074,0.440,0.785,0.742,�k,5.5,��
2019/04/10,03:40,0.785,1.155,0.797,1.482,1.074,0.441,0.785,0.742,�k,5.6,��
2019/04/10,03:50,0.782,1.156,0.795,1.481,1.075,0.440,0.784,0.744,�k,5.0,��
2019/04/10,04:00,0.786,1.156,0.797,1.482,1.074,0.441,0.785,0.743,�k,4.7,��
2019/04/10,04:10,0.783,1.156,0.797,1.484,1.075,0.440,0.783,0.743,�k�k��,5.6,��
2019/04/10,04:20,0.784,1.156,0.797,1.482,1.074,0.440,0.785,0.742,�k�k��,5.3,��
2019/04/10,04:30,0.784,1.156,0.795,1.484,1.074,0.440,0.786,0.742,�k�k��,4.4,��
2019/04/10,04:40,0.784,1.158,0.797,1.483,1.072,0.442,0.784,0.742,�k�k��,4.6,��
2019/04/10,04:50,0.782,1.156,0.798,1.483,1.074,0.441,0.784,0.744,�k�k��,4.3,��
2019/04/10,05:00,0.784,1.158,0.797,1.482,1.074,0.441,0.782,0.742,�k�k��,4.6,��
2019/04/10,05:10,0.784,1.156,0.797,1.484,1.074,0.439,0.786,0.744,�k�k��,3.4,��
2019/04/10,05:20,0.784,1.156,0.797,1.481,1.072,0.441,0.784,0.742,�k��,2.6,��
2019/04/10,05:30,0.783,1.157,0.797,1.482,1.076,0.442,0.784,0.743,�k�k��,2.9,��
2019/04/10,05:40,0.784,1.157,0.795,1.483,1.074,0.441,0.785,0.742,�k�k��,2.3,��
2019/04/10,05:50,0.785,1.155,0.795,1.482,1.075,0.443,0.786,0.743,�k�k��,2.3,��
2019/04/10,06:00,0.785,1.157,0.797,1.480,1.074,0.441,0.784,0.744,�k,2.5,��
2019/04/10,06:10,0.784,1.155,0.798,1.479,1.075,0.441,0.785,0.741,�k,2.0,��
2019/04/10,06:20,0.782,1.155,0.797,1.482,1.076,0.439,0.785,0.743,�k�k��,1.9,��
2019/04/10,06:30,0.782,1.157,0.796,1.480,1.074,0.442,0.784,0.742,�k�k��,1.9,��
2019/04/10,06:40,0.784,1.154,0.796,1.482,1.074,0.441,0.786,0.742,�k��,1.9,��
2019/04/10,06:50,0.785,1.152,0.798,1.482,1.075,0.442,0.785,0.743,�k�k��,1.1,��
2019/04/10,07:00,0.786,1.157,0.798,1.482,1.074,0.442,0.785,0.743,���k��,0.9,��
2019/04/10,07:10,0.784,1.155,0.798,1.483,1.076,0.441,0.786,0.742,-,CALM,��
2019/04/10,07:20,0.784,1.154,0.798,1.482,1.074,0.441,0.785,0.745,��,0.6,��
2019/04/10,07:30,0.784,1.155,0.798,1.486,1.077,0.441,0.789,0.745,��,0.9,��
2019/04/10,07:40,0.783,1.151,0.796,1.484,1.074,0.442,0.785,0.742,��,1.2,��
2019/04/10,07:50,0.785,1.156,0.797,1.481,1.075,0.441,0.786,0.744,��쐼,1.7,��
2019/04/10,08:00,0.783,1.155,0.795,1.483,1.074,0.441,0.783,0.744,��,1.7,��
2019/04/10,08:10,0.786,1.153,0.795,1.481,1.075,0.440,0.784,0.743,��쓌,1.9,��
2019/04/10,08:20,0.785,1.152,0.795,1.481,1.077,0.441,0.787,0.743,��쓌,2.2,��
2019/04/10,08:30,0.785,1.153,0.797,1.485,1.075,0.442,0.785,0.745,��쓌,3.1,��
2019/04/10,08:40,0.785,1.154,0.796,1.482,1.077,0.441,0.785,0.744,��쓌,3.3,��
2019/04/10,08:50,0.786,1.154,0.795,1.483,1.074,0.440,0.783,0.743,�쓌,3.3,��
2019/04/10,09:00,0.784,1.153,0.798,1.482,1.077,0.441,0.785,0.744,�쓌,2.5,��
2019/04/10,09:10,0.786,1.150,0.796,1.480,1.074,0.439,0.783,0.743,���쓌,3.0,��
2019/04/10,09:20,0.785,1.149,0.797,1.482,1.073,0.439,0.785,0.744,��,2.6,��
2019/04/10,09:30,0.785,1.146,0.797,1.480,1.077,0.442,0.785,0.743,���쓌,2.5,��
2019/04/10,09:40,0.785,1.151,0.796,1.485,1.077,0.442,0.783,0.744,���쓌,1.7,��
2019/04/10,09:50,0.785,1.154,0.793,1.482,1.074,0.439,0.782,0.744,���쓌,2.5,��
2019/04/10,10:00,0.783,1.152,0.794,1.480,1.075,0.440,0.784,0.742,�쓌,2.6,��
2019/04/10,10:10,0.784,1.155,0.794,1.482,1.075,0.440,0.784,0.743,���쓌,2.2,��
2019/04/10,10:20,0.784,1.149,0.794,1.482,1.077,0.440,0.784,0.744,���쓌,1.9,�L
2019/04/10,10:30,0.785,1.151,0.798,1.478,1.076,0.442,0.783,0.743,���쓌,2.6,�L
2019/04/10,10:40,0.787,1.153,0.797,1.483,1.074,0.441,0.784,0.742,���쓌,1.7,�L
2019/04/10,10:50,0.784,1.155,0.797,1.484,1.074,0.442,0.784,0.743,���쓌,1.7,�L
2019/04/10,11:00,0.784,1.156,0.798,1.480,1.074,0.443,0.785,0.745,��,2.2,�L
2019/04/10,11:10,0.786,1.156,0.797,1.483,1.077,0.442,0.783,0.742,���k��,1.7,�L
2019/04/10,11:20,0.784,1.156,0.799,1.481,1.079,0.441,0.785,0.742,�쓌,3.3,�L
2019/04/10,11:30,0.786,1.156,0.797,1.486,1.075,0.440,0.784,0.744,���쓌,2.9,�L
2019/04/10,11:40,0.786,1.158,0.798,1.482,1.077,0.441,0.783,0.744,�쓌,1.7,�L
2019/04/10,11:50,0.787,1.159,0.800,1.482,1.076,0.442,0.783,0.744,��쓌,3.3,�L
2019/04/10,12:00,0.786,1.154,0.797,1.482,1.077,0.443,0.783,0.744,�쓌,2.5,�L
2019/04/10,12:10,0.787,1.157,0.798,1.484,1.077,0.442,0.784,0.746,��쓌,3.8,�L
2019/04/10,12:20,0.786,1.159,0.799,1.484,1.077,0.441,0.785,0.743,��쓌,4.3,�L
2019/04/10,12:30,0.787,1.159,0.798,1.482,1.076,0.443,0.782,0.742,��,4.8,�L
2019/04/10,12:40,0.787,1.159,0.800,1.484,1.073,0.442,0.783,0.742,��쓌,3.5,�L
2019/04/10,12:50,0.785,1.157,0.798,1.485,1.074,0.442,0.783,0.742,��쓌,4.5,�L
2019/04/10,13:00,0.786,1.157,0.800,1.481,1.074,0.442,0.783,0.743,��쓌,3.6,�L
2019/04/10,13:10,0.786,1.154,0.798,1.486,1.076,0.443,0.784,0.743,��쓌,4.2,�L
2019/04/10,13:20,0.784,1.153,0.798,1.482,1.076,0.442,0.784,0.742,��쓌,4.1,�L
2019/04/10,13:30,0.786,1.150,0.797,1.483,1.074,0.442,0.784,0.744,��쓌,2.5,�L
2019/04/10,13:40,0.784,1.147,0.797,1.482,1.071,0.443,0.782,0.744,��,4.0,�L
2019/04/10,13:50,0.783,1.146,0.794,1.482,1.070,0.444,0.783,0.742,��쓌,4.6,�L
2019/04/10,14:00,0.781,1.144,0.796,1.476,1.066,0.443,0.781,0.744,�쓌,4.4,�L
2019/04/10,14:10,0.780,1.141,0.795,1.476,1.065,0.443,0.780,0.741,�쓌,3.3,�L
2019/04/10,14:20,0.779,1.139,0.791,1.476,1.060,0.444,0.782,0.741,��쓌,4.4,�L
2019/04/10,14:30,0.779,1.137,0.794,1.473,1.059,0.441,0.780,0.740,��쓌,3.6,�L
2019/04/10,14:40,0.776,1.131,0.790,1.470,1.054,0.441,0.782,0.738,�쓌,2.6,�L
2019/04/10,14:50,0.777,1.131,0.787,1.467,1.051,0.441,0.778,0.740,���쓌,3.7,�L
2019/04/10,15:00,0.772,1.129,0.786,1.465,1.049,0.441,0.778,0.738,�쓌,3.1,�L
2019/04/10,15:10,0.770,1.122,0.785,1.462,1.045,0.440,0.777,0.737,�쓌,3.0,�L
2019/04/10,15:20,0.767,1.121,0.783,1.458,1.045,0.439,0.776,0.736,�쓌,2.8,�L
2019/04/10,15:30,0.766,1.118,0.784,1.455,1.039,0.440,0.775,0.735,��쓌,2.9,�L
2019/04/10,15:40,0.764,1.114,0.780,1.451,1.038,0.439,0.776,0.734,�쓌,3.4,�L
2019/04/10,15:50,0.763,1.109,0.779,1.449,1.034,0.438,0.774,0.734,�쓌,2.3,�L
2019/04/10,16:00,0.761,1.105,0.777,1.444,1.030,0.438,0.772,0.733,�쓌,1.7,�L
2019/04/10,16:10,0.759,1.102,0.771,1.441,1.029,0.437,0.772,0.732,���쓌,1.5,�L
2019/04/10,16:20,0.758,1.101,0.772,1.435,1.026,0.437,0.772,0.732,���쓌,1.2,�L
2019/04/10,16:30,0.757,1.097,0.772,1.433,1.023,0.436,0.771,0.732,���쓌,1.4,�L
2019/04/10,16:40,0.754,1.097,0.770,1.428,1.022,0.436,0.769,0.732,���k��,2.0,�L
2019/04/10,16:50,0.754,1.092,0.769,1.424,1.021,0.434,0.771,0.731,�k��,1.1,�L
2019/04/10,17:00,0.752,1.089,0.766,1.418,1.018,0.433,0.770,0.730,�k��,2.2,�L
2019/04/10,17:10,0.751,1.089,0.765,1.414,1.017,0.434,0.769,0.727,�k,1.7,�L
2019/04/10,17:20,0.750,1.089,0.763,1.410,1.012,0.433,0.770,0.729,�k�k��,2.8,�L
2019/04/10,17:30,0.746,1.086,0.761,1.406,1.013,0.432,0.768,0.729,�k,3.2,�L
2019/04/10,17:40,0.746,1.085,0.761,1.404,1.014,0.432,0.767,0.728,�k,2.9,�L
2019/04/10,17:50,0.747,1.081,0.760,1.402,1.007,0.432,0.766,0.727,�k�k��,2.3,�L
2019/04/10,18:00,0.744,1.082,0.756,1.397,1.002,0.431,0.765,0.727,�k�k��,2.6,�L
2019/04/10,18:10,0.742,1.076,0.756,1.395,0.998,0.431,0.765,0.724,�k�k��,3.2,�L
2019/04/10,18:20,0.738,1.066,0.749,1.388,0.991,0.429,0.761,0.721,�k�k��,3.4,�L
2019/04/10,18:30,0.732,1.061,0.749,1.386,0.987,0.428,0.758,0.722,�k�k��,3.5,�L
2019/04/10,18:40,0.730,1.054,0.745,1.381,0.977,0.429,0.755,0.720,�k�k��,4.0,�L
2019/04/10,18:50,0.724,1.046,0.743,1.376,0.972,0.427,0.753,0.716,�k�k��,3.5,�L
2019/04/10,19:00,0.722,1.040,0.742,1.374,0.968,0.425,0.752,0.718,�k��,3.2,�L
2019/04/10,19:10,0.717,1.034,0.738,1.366,0.961,0.426,0.752,0.716,�k�k��,3.9,�L
2019/04/10,19:20,0.716,1.027,0.734,1.364,0.955,0.425,0.750,0.713,�k�k��,4.2,�L
2019/04/10,19:30,0.711,1.018,0.733,1.358,0.948,0.423,0.747,0.712,�k�k��,4.8,�L
2019/04/10,19:40,0.708,1.012,0.728,1.352,0.940,0.423,0.745,0.711,�k�k��,5.6,�L
2019/04/10,19:50,0.703,1.005,0.725,1.348,0.935,0.422,0.743,0.711,�k�k��,6.5,�L
2019/04/10,20:00,0.701,0.998,0.721,1.342,0.929,0.420,0.742,0.710,�k�k��,7.3,�L
2019/04/10,20:10,0.698,0.991,0.718,1.337,0.922,0.417,0.738,0.709,�k�k��,6.7,�L
2019/04/10,20:20,0.695,0.986,0.715,1.331,0.920,0.418,0.739,0.708,�k��,8.9,�L
2019/04/10,20:30,0.693,0.983,0.712,1.322,0.915,0.418,0.736,0.706,�k��,8.3,�L
2019/04/10,20:40,0.688,0.975,0.708,1.316,0.910,0.415,0.734,0.704,�k�k��,8.1,�L
2019/04/10,20:50,0.687,0.975,0.708,1.312,0.907,0.416,0.734,0.704,�k��,8.0,�L
2019/04/10,21:00,0.683,0.966,0.704,1.304,0.903,0.414,0.735,0.704,�k�k��,7.9,�L
2019/04/10,21:10,0.679,0.962,0.701,1.299,0.897,0.414,0.733,0.704,�k��,7.3,�L
2019/04/10,21:20,0.676,0.958,0.698,1.297,0.894,0.413,0.729,0.705,�k��,8.2,�L
2019/04/10,21:30,0.676,0.953,0.694,1.289,0.890,0.414,0.728,0.705,�k�k��,9.4,�L
2019/04/10,21:40,0.672,0.953,0.692,1.287,0.887,0.413,0.728,0.705,�k�k��,9.8,�L
2019/04/10,21:50,0.668,0.948,0.690,1.284,0.882,0.412,0.731,0.706,�k�k��,9.6,�L
2019/04/10,22:00,0.667,0.948,0.689,1.282,0.880,0.411,0.734,0.706,�k�k��,9.8,�L
2019/04/10,22:10,0.666,0.946,0.687,1.283,0.878,0.410,0.730,0.705,�k�k��,9.8,�L
2019/04/10,22:20,0.665,0.944,0.686,1.281,0.874,0.410,0.733,0.707,�k�k��,9.4,�L
2019/04/10,22:30,0.664,0.941,0.687,1.282,0.872,0.410,0.731,0.708,�k�k��,9.1,�L
2019/04/10,22:40,0.664,0.936,0.683,1.279,0.868,0.410,0.733,0.706,�k�k��,9.7,�L
2019/04/10,22:50,0.662,0.933,0.682,1.276,0.864,0.408,0.732,0.707,�k�k��,9.5,�L
2019/04/10,23:00,0.661,0.928,0.681,1.273,0.863,0.409,0.734,0.706,�k�k��,8.9,�L
2019/04/10,23:10,0.658,0.925,0.677,1.270,0.861,0.407,0.730,0.705,�k�k��,7.6,�L
2019/04/10,23:20,0.652,0.919,0.676,1.266,0.856,0.408,0.728,0.704,�k��,9.5,�L
2019/04/10,23:30,0.652,0.915,0.674,1.262,0.852,0.408,0.729,0.702,�k�k��,10.7,�L
2019/04/10,23:40,0.648,0.908,0.671,1.258,0.847,0.406,0.727,0.701,�k�k��,9.3,�L
2019/04/10,23:50,0.646,0.904,0.670,1.254,0.842,0.406,0.725,0.700,�k�k��,10.7,�L
